Hourly Weather Roundup
Issued by NWS Central Illinois

Home | Current Version | Previous Version | Graphics & Text | Print | Product List | Glossary On
Versions: 1 2 3 4 5 6 7 8 9 10 11 12 13 14 15 16 17 18 19 20 21 22 23 24 25 26 27 28 29 30 31 32 33 34 35 36 37 38 39 40 41 42 43 44 45 46 47 48 49 50
565
NZUS43 KILX 202210
HWRILX

Area Weather Roundup
National Weather Service Lincoln IL
500 PM CDT FRI OCT 20 2017

NOTE:  "FAIR" indicates few or no clouds below 12,000 feet, with
       no sigificant weather and/or obstructions to visibility.


CITY           SKY/WX    TMP DP  RH WIND       PRES   REMARKS
Bloomington    PTSUNNY   72  47  40 S16       30.08F
Champaign      CLOUDY    78  43  28 S17       30.10F
Danville       SUNNY     74  48  39 S9        30.09F
Decatur        CLOUDY    75  42  30 S16       30.08F
Effingham      CLOUDY    75  49  40 SE7       30.13F
Flora          SUNNY     73  53  48 SE6       30.12S
Galesburg      MOSUNNY   81  52  36 S10G21    30.01F HX  80
Jacksonville   MOSUNNY   72  47  40 S7        30.04F
Lacon          MOSUNNY   75  47  37 S9        30.03F
Lawrenceville  SUNNY     76  51  41 S10       30.14F
Litchfield     CLOUDY    71  48  43 SE10      30.08F
$$


CITY           SKY/WX    TMP DP  RH WIND       PRES   REMARKS
Lincoln        CLOUDY    76  47  35 S8        30.06F
Macomb         MOSUNNY   72  46  39 S13G18    30.03F
Mattoon        CLOUDY    73  49  42 S8        30.11S
Mt Carmel AP   SUNNY     75  47  36 S9        30.13F
Olney-Noble AP CLOUDY    75  41  29 SE8       30.13S
Paris AP       SUNNY     73  51  46 S10       30.13F
Peoria         CLOUDY    74  43  32 S10       30.03F
Pontiac        MOSUNNY   78  46  32 S8        30.07F
Rantoul        SUNNY     75  47  37 S8        30.10S
Robinson       SUNNY     75  50  41 S8        30.14S
Springfield    CLOUDY    76  47  35 S10       30.06F
Taylorville    MOSUNNY   73  46  38 S7        30.08S
$$

...REGIONAL REPORTS...


CITY           SKY/WX    TMP DP  RH WIND       PRES   REMARKS
Chicago O`Hare CLOUDY    75  51  43 S9        30.04F
Kankakee       SUNNY     75  47  38 S9        30.09S
Moline         SUNNY     75  46  35 S9        29.98F
Mount Sterling MOSUNNY   73  47  39 S12       30.02F
Mount Vernon   CLOUDY    74  52  46 S8        30.12F
Pittsfield     PTSUNNY   73  51  45 SE10      30.04F
Quincy         CLOUDY    71  48  43 S10G20    30.00F
Rockford       CLOUDY    74  50  42 S13       30.03S
$$


CITY           SKY/WX    TMP DP  RH WIND       PRES   REMARKS
Burlington     MOSUNNY   72  51  47 S14       29.98F
Cedar Rapids   CLOUDY    74  48  39 S15       29.92F
Des Moines     CLOUDY    72  52  49 S20       29.84F
Kirksville     CLOUDY    70  53  54 S17       29.98R
Ottumwa        MOSUNNY   71  51  49 SE14      29.91F
St Louis       CLOUDY    74  50  42 SE14      30.06F
$$


CITY           SKY/WX    TMP DP  RH WIND       PRES   REMARKS
Terre Haute    SUNNY     73  49  42 S7        30.14S
Evansville     SUNNY     75  48  38 SE8       30.15F
Indianapolis   MOCLDY    71  49  45 S7        30.15F
Lafayette      CLEAR     74  50  42 S8        30.11F
Madison        PTSUNNY   73  45  36 S12       29.97F
Milwaukee      MOCLDY    75  51  43 S12       30.02F
$$






USA.gov is the U.S. government's official web portal to all federal, state and local government web resources and services.